Weather History for Danbury, CT

Change the Weather History Date:

Tuesday, June 17, 2014

  Actual Average Record
Temperature  
Mean Temperature 73 °F -  
Max Temperature 86 °F 79 °F 91 °F (1952)
Min Temperature 60 °F 57 °F 41 °F (1965)
Cooling Degree Days 8    
Growing Degree Days 23 (Base 50)    
Moisture  
Dew Point 63 °F    
Average Humidity 70    
Maximum Humidity 90    
Minimum Humidity 44    
Precipitation  
Precipitation 0.00 in - - ()
Sea Level Pressure  
Sea Level Pressure 30.01 in    
Wind  
Wind Speed 3 mph (SSW)    
Max Wind Speed 10 mph    
Max Gust Speed -    
Visibility 10 miles    
Events      
Averages and records for this station are not official NWS values.
T = Trace of Precipitation, MM = Missing Value Source: NWS Daily Summary

Daily Weather History Graph

Daily Weather History Graph

Search for Another Location

Airport:

Trip Planner

Search our weather history database for the weather conditions in past years. The results will help you decide how hot, cold, wet, or windy it might be!

Date:

Astronomy

Jun. 17, 2014 Rise Set
Actual Time 5:20 AM EDT 8:29 PM EDT
Civil Twilight 4:46 AM EDT 9:03 PM EDT
Nautical Twilight 4:02 AM EDT 9:47 PM EDT
Astronomical Twilight 3:10 AM EDT 10:39 PM EDT
Moon 11:53 PM EDT (6/17) 10:34 AM EDT (6/17)
Length of Visible Light 16h 17m
Length of Day
15h 09m
Waning Gibbous, 73% of the Moon is Illuminated
Jun 17
Waning Gibbous
Jun 19
Last Quarter
Jun 27
New
Jul 5
First Quarter
Jul 12
Full

Hourly Weather History & Observations

Time (EDT) Temp. Heat Index Dew Point Humidity Pressure Visibility Wind Dir Wind Speed Gust Speed Precip Events Conditions
12:53 AM 66.0 °F - 55.9 °F 70% 30.08 in 10.0 mi Calm Calm - 0.00 in   Mostly Cloudy
1:53 AM 64.0 °F - 55.9 °F 75% 30.06 in 10.0 mi SSE 5.8 mph - N/A   Clear
2:53 AM 62.1 °F - 55.9 °F 80% 30.05 in 10.0 mi Calm Calm - N/A   Clear
3:53 AM 60.1 °F - 55.9 °F 86% 30.04 in 10.0 mi Calm Calm - N/A   Clear
4:53 AM 60.1 °F - 57.0 °F 90% 30.05 in 10.0 mi SW 3.5 mph - N/A   Clear
5:53 AM 61.0 °F - 57.9 °F 90% 30.04 in 10.0 mi Calm Calm - N/A   Partly Cloudy
6:53 AM 64.0 °F - 59.0 °F 84% 30.06 in 10.0 mi Calm Calm - N/A   Scattered Clouds
7:53 AM 66.0 °F - 60.1 °F 81% 30.07 in 10.0 mi Calm Calm - N/A   Mostly Cloudy
8:53 AM 70.0 °F - 62.1 °F 76% 30.07 in 10.0 mi Calm Calm - N/A   Mostly Cloudy
9:53 AM 73.0 °F - 64.9 °F 76% 30.09 in 10.0 mi WSW 4.6 mph - N/A   Scattered Clouds
10:53 AM 75.9 °F - 66.0 °F 71% 30.07 in 10.0 mi SW 3.5 mph - N/A   Clear
11:53 AM 80.1 °F 82.1 °F 66.0 °F 62% 30.05 in 10.0 mi Calm Calm - N/A   Clear
12:53 PM 82.9 °F 85.4 °F 66.9 °F 58% 30.04 in 10.0 mi West 5.8 mph - N/A   Clear
1:53 PM 84.9 °F 86.6 °F 64.9 °F 51% 30.01 in 10.0 mi Calm Calm - N/A   Clear
3:53 PM 86.0 °F 86.8 °F 63.0 °F 46% 29.98 in 10.0 mi SSW 9.2 mph - N/A   Clear
4:53 PM 86.0 °F 86.3 °F 62.1 °F 44% 29.96 in 10.0 mi SSW 6.9 mph - N/A   Clear
5:53 PM 82.9 °F 85.4 °F 66.9 °F 58% 29.96 in 10.0 mi SSE 9.2 mph - N/A   Partly Cloudy
6:53 PM 82.0 °F 84.9 °F 68.0 °F 62% 29.94 in 7.0 mi South 10.4 mph - N/A   Clear
7:53 PM 79.0 °F - 66.9 °F 66% 29.91 in 8.0 mi South 9.2 mph - N/A   Clear
8:53 PM 77.0 °F - 66.9 °F 71% 29.91 in 8.0 mi South 9.2 mph - N/A   Clear
9:53 PM 75.0 °F - 68.0 °F 79% 29.91 in 8.0 mi SSW 5.8 mph - N/A   Clear
10:53 PM 75.9 °F - 66.0 °F 71% 29.90 in 9.0 mi South 4.6 mph - N/A   Clear
11:53 PM 75.0 °F - 66.0 °F 73% 29.87 in 8.0 mi South 4.6 mph - N/A   Clear